Regional Weather Roundup
Issued by NWS Little Rock, AR

Home | Current Version | Previous Version | Text Only | Print | Product List | Glossary On
Versions: 1 2 3 4 5 6 7 8 9 10 11 12 13 14 15 16 17 18 19 20 21 22 23 24 25 26 27 28 29 30 31 32 33 34 35 36 37 38 39 40 41 42 43 44 45 46 47
000
ASUS44 KLZK 031105
RWRLZK

WEATHER ROUNDUP FOR ARKANSAS
NATIONAL WEATHER SERVICE LITTLE ROCK AR
600 AM CDT MON AUG 03 2015

NOTE: "FAIR" INDICATES FEW OR NO CLOUDS BELOW 12,000 FEET WITH NO
SIGNIFICANT WEATHER AND/OR OBSTRUCTIONS TO VISIBILITY.

ARZ001-003-010-029-031200-
NORTHWEST ARKANSAS

CITY           SKY/WX    TMP DP  RH WIND       PRES   REMARKS
FAYETTEVILLE   PTCLDY    65  65 100 CALM      29.98R
FORT SMITH     PTCLDY    73  67  81 CALM      29.92R
HARRISON       CLEAR     68  64  87 NE3       29.97S
BENTONVILLE    PTCLDY    70  64  83 CALM      29.97S
ROGERS         PTCLDY    70  69  97 CALM      29.97S
SILOAM SPGS    MOCLDY    70  63  78 E5        29.96R
HIGHFILL       PTCLDY    68  67  96 CALM      29.96S
SPRINGDALE     CLEAR     70  66  88 SE3       29.99
$$

ARZ004-005-016-031200-
NORTH CENTRAL ARKANSAS

CITY           SKY/WX    TMP DP  RH WIND       PRES   REMARKS
BATESVILLE     CLEAR     72  66  83 CALM      29.92R
FLIPPIN        CLEAR     70  64  83 CALM      29.92S
MTN HOME       CLEAR     69  68  96 CALM      29.94R
$$

ARZ040-041-031200-
WEST CENTRAL ARKANSAS

CITY           SKY/WX    TMP DP  RH WIND       PRES   REMARKS
MENA           CLEAR     66  63  88 CALM      29.97R
MOUNT IDA      CLEAR     65  63  93 CALM      29.93R
$$

ARZ009-017-025-026-028-031200-
NORTHEAST ARKANSAS

CITY           SKY/WX    TMP DP  RH WIND       PRES   REMARKS
JONESBORO      CLEAR     69  68  96 CALM      29.91R
NEWPORT        CLEAR     73  72  97 CALM      29.92R
WALNUT RIDGE   CLEAR     73  68  83 SW3       29.91R
BLYTHEVILLE    CLEAR     74  72  93 SW3       29.91R
$$

ARZ022-023-033-042-044-031200-
CENTRAL ARKANSAS

CITY           SKY/WX    TMP DP  RH WIND       PRES   REMARKS
LITTLE ROCK    MOCLDY    74  68  81 CALM      29.92R
N LITTLE ROCK    N/A     78  67  69 NW3       29.92R
JACKSONVILLE   CLEAR     70  66  88 W2        29.92R
SEARCY         CLEAR     69  69 100 CALM      29.93S
HOT SPRINGS    CLEAR     70  64  81 CALM      29.94R
RUSSELLVILLE   CLEAR     67  65  93 CALM      29.93R
$$

ARZ036-031200-
EAST ARKANSAS

CITY           SKY/WX    TMP DP  RH WIND       PRES   REMARKS
WEST MEMPHIS   CLEAR     71  71 100 CALM      29.90R
$$

ARZ050-053-066-070-073-031200-
SOUTHWEST ARKANSAS

CITY           SKY/WX    TMP DP  RH WIND       PRES   REMARKS
ARKADELPHIA    FAIR      67  67 100 CALM      29.92R
CAMDEN         FOG       66  64  94 CALM      29.91S VSB 1/4
TEXARKANA      PTCLDY    72  64  76 SE3       29.92R
EL DORADO      PTCLDY    68  66  93 CALM      29.92R
DE QUEEN       PTCLDY    67  66  97 CALM      29.91R
$$

ARZ056-057-069-031200-
SOUTHEAST ARKANSAS

CITY           SKY/WX    TMP DP  RH WIND       PRES   REMARKS
PINE BLUFF     CLEAR     70  68  93 CALM      29.92R
STUTTGART      CLEAR     72  66  83 MISG      29.91S
MONTICELLO     CLEAR     68  67  96 CALM      29.91R

$$




USA.gov is the U.S. government's official web portal to all federal, state and local government web resources and services.